Location: Betz
(49.1556°N, 2.9558°E)
Time: 17:53:12
(UTC+00:00)

Daily predictions for brighter satellites

Satellite Brightness Start Highest point End
(mag) Time Altitude Azimuth Time Altitude Azimuth Time Altitude Azimuth
CENTAUR R/B 4.4 20:04:28 10° NW 20:11:58 38° WSW 20:20:01 10° S
Cosmos 2082 3.9 20:06:50 10° NNW 20:12:27 62° ENE 20:18:01 10° SE
Cosmos 389 Rocket 2.8 20:11:08 10° N 20:14:34 50° ENE 20:17:59 10° SSE
CARTOSAT-1 4.1 20:10:56 10° SE 20:15:02 44° ENE 20:19:09 10° N
Cosmos 968 Rocket 3.7 20:10:30 10° SSW 20:15:38 76° WNW 20:20:48 10° NNE
Cosmos 405 3.1 20:12:15 10° NNW 20:15:40 75° W 20:19:04 10° S
Cosmos 1340 3.1 20:13:00 10° SSE 20:16:31 42° E 20:20:05 10° NNE
PSLV R/B 3.9 20:12:58 10° NNE 20:17:03 82° ESE 20:21:04 10° SSW
SPOT 1/Viking Rocket 3.6 20:12:48 10° SSE 20:17:58 81° ENE 20:23:09 10° NNW
ERS-1 Rocket 4.1 20:13:40 10° ESE 20:17:59 30° ENE 20:22:20 10° N
Cosmos 2263 Rocket 3.0 20:12:46 10° NNW 20:18:01 39° NE 20:23:12 10° ESE
IRAS Rocket 4.3 20:14:25 10° NNE 20:20:01 64° ESE 20:25:36 10° S
Cosmos 1743 2.7 20:16:53 10° N 20:20:40 65° ENE 20:24:25 10° SSE
Nadezhda 4 Rocket 4.3 20:17:08 10° N 20:23:16 54° ENE 20:29:16 10° SSE
Cosmos 1656 4.3 20:18:59 10° SW 20:24:30 62° WNW 20:29:58 10° NNE
Aureole 1 Rocket 2.4 20:21:40 10° S 20:24:46 46° ESE 20:27:39 10° NE
Cosmos 1184 Rocket 2.9 20:25:46 10° S 20:28:39 44° E 20:31:34 10° NNE
H-2A R/B 2.6 20:26:07 10° N 20:30:09 60° WNW 20:34:12 10° SSW
Cosmos 2227 Rocket 3.0 20:28:50 10° NW 20:34:16 48° WSW 20:39:41 10° S
ARIANE 5 R/B 4.1 20:31:02 10° ESE 20:34:41 25° ENE 20:38:22 10° N
CZ-4B R/B 1.8 20:33:53 10° N 20:37:04 62° WNW 20:40:11 10° SSW
Cosmos 1328 Rocket 4.5 20:35:26 10° SSW 20:39:38 50° WNW 20:43:53 10° N
Timation 2 Rocket 4.2 20:34:10 10° NNW 20:40:44 83° ENE 20:47:19 11° SSE
Cosmos 1072 Rocket 4.5 20:37:00 10° S 20:43:05 86° E 20:49:16 10° N
Ariane Rocket 3.4 20:38:50 10° S 20:43:52 66° WSW 20:48:57 10° NNW
Cosmos 1980 Rocket 2.3 20:40:07 10° S 20:45:35 55° ESE 20:51:07 10° NE
Cosmos 1536 3.4 20:42:04 10° NNW 20:46:02 57° W 20:49:58 10° S
Cosmos 2344 3.5 20:40:47 10° SSW 20:48:09 63° ESE 20:55:42 10° NE
RESURS DK-1 3.2 20:47:30 10° S 20:51:07 30° ESE 20:54:46 10° NE
Okean 1 3.5 20:47:32 10° S 20:51:25 52° E 20:55:21 10° NNE
Cosmos 2369 3.7 20:47:13 10° SSW 20:52:48 70° ESE 20:58:28 10° NNE
Cosmos 2322 Rocket 3.9 20:51:51 11° ESE 20:54:02 14° E 20:56:40 10° ENE
Meteor 1-19 Rocket 4.3 20:48:48 10° S 20:54:06 57° E 20:59:24 10° NNE
ATLAS CENTAUR R/B 4.1 20:51:57 10° NNW 20:55:24 19° NNE 20:58:47 10° ENE
SL-4 R/B 3.4 20:53:21 10° W 20:57:19 30° SW 21:00:27 13° SSE
Cosmos 482 Debris 3.8 20:54:35 10° WNW 20:57:21 79° SSW 21:01:00 13° ESE
Cosmos 1844 Rocket 4.4 20:53:17 10° N 20:57:40 23° NE 21:02:00 10° E
SL-24 R/B - RUBIN 2 4.2 20:54:35 10° NNW 20:58:51 48° NE 21:02:43 13° ESE
Cosmos 1378 3.9 20:58:34 16° SSE 21:00:59 32° E 21:04:18 10° NNE
Cosmos 1933 Rocket 4.2 20:56:35 10° NNW 21:00:59 57° W 21:05:21 10° S
SPOT 5 3.1 20:57:31 12° SSE 21:02:21 75° ENE 21:07:29 10° N
Cosmos 783 Rocket 4.5 20:57:57 10° NNW 21:03:11 89° ENE 21:07:35 15° SSE
Cosmos 1697 Rocket 3.3 20:59:19 10° SW 21:04:56 62° WNW 21:10:35 10° NNE
Terra 2.0 21:04:47 15° SSE 21:08:34 59° ENE 21:13:16 10° N
Cosmos 1733 Rocket 4.1 21:04:33 10° N 21:08:36 33° ENE 21:11:30 16° SE
Cosmos 2297 Rocket 4.5 21:07:01 10° WNW 21:10:41 18° W 21:14:21 10° SW
Meteor 2-21 4.5 21:04:33 10° N 21:10:41 87° W 21:16:27 12° S
Cosmos 2034 Rocket 4.1 21:05:04 10° S 21:11:22 90° SW 21:17:47 10° N
SPOT 3 Rocket 4.0 21:07:20 10° S 21:12:24 59° WSW 21:17:30 10° NNW
Cosmos 1975 3.0 21:11:33 10° N 21:15:35 57° ENE 21:18:16 20° SSE
Cosmos 1354 Rocket 4.0 21:10:31 10° SSW 21:15:48 86° ESE 21:21:09 10° NNE
Cosmos 2227 4.4 21:10:39 10° NNW 21:16:24 67° ENE 21:20:48 18° SE
Cosmos 1777 Rocket 4.1 21:11:30 10° S 21:16:35 57° ESE 21:21:44 10° NNE
Spot 2 Rocket 3.5 21:13:13 14° S 21:17:36 80° WSW 21:22:40 10° NNW
SJ 16-02 1.2 21:13:36 10° SSW 21:17:57 78° ESE 21:22:21 10° NNE
Cosmos 773 Rocket 4.2 21:14:17 10° NNW 21:19:30 70° WSW 21:23:36 16° S
Helios 1A Rocket 3.3 21:17:01 14° S 21:20:24 58° WSW 21:24:22 10° NNW
Meteor 2-9 Rocket 4.5 21:15:04 10° NNW 21:20:51 72° W 21:25:55 13° S
BREEZE M DEB (TANK) 4.0 21:18:17 10° W 21:22:24 58° SSW 21:37:26 10° SE
Meteor 2-21 Rocket 4.4 21:17:59 10° N 21:24:06 89° ENE 21:29:12 16° S
ISS -3.8 21:22:48 10° WNW 21:26:08 66° SSW 21:27:54 25° SE
ATLAS 2AS CENTAUR R/B 2.9 21:19:38 10° SSW 21:27:22 70° SE 21:34:52 10° NE
Resurs 01 Rocket 4.0 21:26:27 10° SW 21:29:29 18° W 21:32:33 10° NW
SL-16 R/B 2.8 21:28:34 18° SSE 21:32:05 36° ESE 21:37:13 10° NE
NOSS 3-4 (A) 4.4 21:26:37 10° WSW 21:32:14 49° NW 21:38:26 10° NE
NOSS 3-4 (C) 4.4 21:26:40 10° WSW 21:32:19 50° NW 21:38:31 10° NE
Cosmos 2292 Rocket 2.6 21:29:25 10° NNW 21:32:30 77° W 21:33:59 26° S
Cosmos 2279 Rocket 4.4 21:29:53 19° SSE 21:34:03 45° E 21:39:57 10° NNE
Meteor 2-16 Rocket 4.5 21:30:40 10° N 21:36:52 87° W 21:41:37 18° S
USA 267 4.0 21:31:16 10° E 21:37:33 52° NNE 21:43:51 10° WNW
Meteor 1-18 Rocket 4.2 21:32:47 11° S 21:38:19 86° E 21:43:58 10° NNE
USA 81 4.0 21:40:09 19° S 21:44:00 75° E 21:49:17 10° N
Meteor 1-4 Rocket 3.3 21:45:14 10° N 21:48:30 38° ENE 21:49:45 27° ESE
Cosmos 158 Rocket 4.2 21:43:52 10° NNW 21:48:57 66° WSW 21:52:16 22° S
Cosmos 2228 Rocket 3.7 21:45:02 10° SSW 21:49:31 56° WNW 21:54:01 10° N
Cosmos 2278 3.8 21:46:16 10° SSW 21:51:56 79° WNW 21:57:40 10° NNE
ATLAS 3B R/B 2.9 21:46:31 10° NW 21:53:54 88° NE 21:59:21 21° SE
NOSS 2-1 (E) 3.1 21:55:28 39° SSE 21:55:58 42° SE 21:59:04 10° NE
Cosmos 1538 Rocket 4.0 21:51:13 10° NNW 21:56:30 79° WSW 21:59:31 26° SSE
ERS-1 Rocket 3.8 21:52:48 15° SSW 21:56:37 43° W 22:01:26 10° NNW
Cosmos 44 Rocket 3.5 21:52:43 10° NW 21:57:21 57° WSW 21:59:42 27° S
SAR-Lupe-4 3.5 21:53:52 10° NNE 21:57:28 68° ESE 21:58:59 32° S
BREEZE-M DEB (TANK) 2.3 21:55:52 10° W 21:58:12 46° SSW 21:59:30 30° SE
Cosmos 2360 Rocket 3.2 21:56:46 23° SE 21:58:40 28° ESE 22:03:23 10° NE
Cosmos 1346 Rocket 2.8 21:59:32 23° SSW 22:01:58 82° WNW 22:06:01 10° N
Cosmos 2263 Rocket 3.0 21:56:46 10° NW 22:01:59 41° WSW 22:05:28 19° SSW
Okean 1-7 4.1 22:05:26 26° ESE 22:06:48 31° E 22:10:40 10° NNE
Cosmos 1441 Rocket 3.2 22:06:52 37° SSE 22:08:08 61° E 22:11:49 10° NNE
Geosat 4.0 22:06:25 27° SSE 22:09:09 72° WSW 22:14:12 10° NNW
Cosmos 1726 3.3 22:06:32 10° N 22:09:48 30° ENE 22:10:55 25° ESE
ARIANE 5 R/B 3.5 22:08:14 21° SSW 22:10:54 44° W 22:15:16 10° NNW
Cosmos 923 Rocket 4.1 22:09:23 10° NNW 22:14:45 71° ENE 22:17:34 28° SE
Cosmos 1634 Rocket 4.3 22:09:45 13° SSW 22:15:20 64° WNW 22:21:30 10° N
Cosmos 1707 Rocket 4.3 22:14:53 17° SSW 22:18:11 51° WNW 22:22:30 10° N
Okean 3 4.5 22:18:10 27° ESE 22:19:14 31° E 22:22:58 10° NNE
Cosmos 1356 3.3 22:19:27 51° SSE 22:20:00 62° E 22:23:17 10° NNE
Cosmos 1066 Rocket 4.2 22:18:38 26° S 22:21:57 73° E 22:27:37 10° NNE
Cosmos 1937 Rocket 4.4 22:20:56 27° SE 22:22:28 32° E 22:27:06 10° NE
Iridium 2 3.9 22:19:32 10° N 22:23:15 64° W 22:24:37 35° SSW
RESURS DK-1 4.0 22:25:19 10° WSW 22:29:05 33° NW 22:32:51 10° NNE
Cosmos 1980 Rocket 4.0 22:24:52 10° WSW 22:29:53 32° NW 22:34:58 10° NNE
Cosmos 1655 Rocket 4.0 22:25:26 10° N 22:31:42 74° E 22:35:02 29° SSE
Cosmos 1703 Rocket 3.9 22:31:17 36° SSE 22:32:42 52° E 22:37:01 10° NNE
CZ-4C R/B 3.6 22:27:10 10° NW 22:33:47 50° NE 22:41:41 10° ESE
ATLAS CENTAUR R/B 2.3 22:30:24 10° NW 22:35:14 55° NE 22:38:00 23° ESE
Cosmos 2112 Rocket 4.2 22:30:01 10° NNW 22:35:22 69° ENE 22:37:57 31° SE
NOSS 2-1 (C) 3.2 22:34:19 20° WSW 22:36:23 61° NW 22:39:39 10° NE
Cosmos 1680 Rocket 3.5 22:31:26 10° NNW 22:36:47 80° ENE 22:39:14 33° SSE
Cosmos 2322 Rocket 2.1 22:33:36 24° SSW 22:37:09 80° ESE 22:42:47 10° NNE
Cosmos 2333 Rocket 3.1 22:37:44 28° SE 22:39:19 33° ESE 22:44:19 10° NE
Cosmos 1805 3.6 22:35:51 10° NNW 22:39:41 57° W 22:40:54 38° SSW
Cosmos 1818 3.6 22:35:06 10° NW 22:40:36 76° NE 22:43:33 28° SE
Cosmos 990 Rocket 3.9 22:38:01 27° SSW 22:40:57 85° ESE 22:46:14 10° NNE
Cosmos 1844 Rocket 2.6 22:36:40 10° NNW 22:42:17 85° WSW 22:44:54 33° SSE
USA 215 3.3 22:37:24 10° ENE 22:43:49 55° SE 22:49:02 16° SSW
Meteor 1-23 Rocket 4.5 22:42:38 32° SSE 22:45:14 59° E 22:50:59 10° NNE
Cosmos 1782 Rocket 3.7 22:41:47 10° N 22:46:07 61° ENE 22:47:32 39° SE
Terra 3.8 22:43:40 11° SW 22:46:42 19° W 22:50:09 10° NW
NOSS 2-1 (D) 3.7 22:44:33 16° WSW 22:46:54 48° NW 22:50:07 10° NE
Cosmos 1898 Rocket 3.5 22:48:40 33° S 22:51:06 72° ESE 22:56:26 10° NNE
Cosmos 1766 3.2 22:49:27 10° NNW 22:53:23 76° W 22:54:22 49° S
Iridium 4 Rocket 3.2 22:50:36 10° N 22:55:07 82° W 22:56:59 38° S
SJ 16-02 4.1 22:54:22 10° W 22:57:05 16° NW 22:59:49 10° NNW
Cosmos 1908 Rocket 3.8 22:52:54 10° NNW 22:57:10 57° W 22:58:35 38° SSW
Cosmos 1733 4.3 22:54:15 10° NNW 22:57:42 34° W 22:58:45 28° SW
ADEOS Rocket 3.3 22:55:22 26° SE 22:58:24 53° ENE 23:04:16 10° N
Cosmos 2242 Rocket 3.6 22:59:31 42° S 23:00:59 77° E 23:05:33 10° NNE
Spot 4 3.9 22:59:45 39° S 23:01:32 73° WSW 23:06:20 10° NNW
ISS -1.2 23:00:27 10° WSW 23:00:48 11° WSW 23:00:48 11° WSW
ALOS 2 2.6 23:01:10 42° SSE 23:02:35 76° ENE 23:07:00 10° N
Cosmos 1844 3.8 22:56:58 10° NNW 23:02:46 72° WSW 23:05:17 35° S
Cosmos 2219 Rocket 2.9 23:01:15 31° SE 23:02:48 38° ESE 23:07:55 10° NE
Cosmos 1300 Rocket 4.0 22:59:41 10° N 23:03:56 51° ENE 23:05:18 36° SE
Okean 2 Rocket 4.4 23:01:58 10° N 23:06:02 31° ENE 23:07:53 23° ESE
Cosmos 2266 Rocket 4.2 23:02:39 10° NNW 23:08:50 62° W 23:11:54 30° SSW
Cosmos 1900 4.3 23:09:31 36° SSW 23:11:33 72° ESE 23:16:41 10° NE
Cosmos 1707 3.3 23:15:00 40° ESE 23:15:31 42° E 23:19:12 10° NNE
SL-16 R/B 3.2 23:10:41 10° SW 23:16:06 45° NW 23:21:33 10° NNE
ATLAS 2AS CENTAUR R/B 4.1 23:11:30 10° WSW 23:18:50 44° NNW 23:25:54 10° NE
USA 229 DEB 4.4 23:11:51 10° NW 23:18:58 57° NE 23:26:35 10° ESE
USA 229 4.4 23:11:57 10° NW 23:19:03 57° NE 23:26:40 10° ESE
USA 267 3.2 23:14:57 16° SE 23:20:21 85° SW 23:26:57 10° WNW
ASTEX 1 4.2 23:19:22 10° NNE 23:23:58 38° E 23:25:37 30° SE
Meteor 2-17 Rocket 4.4 23:20:23 10° N 23:26:35 88° W 23:29:25 35° S
Cosmos 1470 2.7 23:25:41 10° NNW 23:29:33 75° W 23:30:11 58° SSW
ERS-2 2.0 23:26:47 10° NNE 23:30:25 82° WNW 23:30:57 62° SSW
Sich 1 Rocket 3.7 23:26:24 10° N 23:30:48 65° ENE 23:32:05 42° SE
Cosmos 2237 Rocket 3.9 23:29:40 16° ESE 23:31:17 18° E 23:35:00 10° ENE
COSMOS 2428 3.2 23:30:19 34° SSE 23:32:06 45° ESE 23:37:29 10° NE
KORONAS-FOTON 4.4 23:32:11 38° ESE 23:32:38 40° E 23:36:14 10° NNE
Cosmos 372 Rocket 3.9 23:32:34 38° SSW 23:34:33 87° ESE 23:39:46 10° NNE
Cosmos 2360 Rocket 2.7 23:38:29 20° SW 23:42:20 56° NW 23:47:55 10° NNE
Cosmos 1437 Rocket 4.1 23:39:23 10° N 23:42:44 30° ENE 23:43:57 24° ESE
Cosmos 405 Rocket 3.9 23:43:02 27° ESE 23:43:29 28° E 23:46:46 10° NNE
ATLAS 3B R/B 4.1 23:38:05 10° WNW 23:43:56 26° WSW 23:46:36 21° SW
Meteor 1-21 4.3 23:42:06 37° S 23:44:32 75° E 23:50:21 10° NNE
Cosmos 1726 3.8 23:41:47 10° NW 23:44:39 22° W 23:45:12 21° WSW
Okean 1 Rocket 4.3 23:40:55 10° N 23:44:59 34° ENE 23:46:55 23° ESE
Cosmos 2333 4.2 23:42:27 31° SW 23:45:15 81° WNW 23:50:56 10° NNE
NOSS 3-1 (A) 4.1 23:38:25 10° NW 23:45:45 85° NE 23:53:17 15° SE
Cosmos 1943 Rocket 4.5 23:43:46 10° N 23:48:07 22° NE 23:52:27 10° E
Cosmos 1908 3.5 23:45:24 10° N 23:49:08 56° ENE 23:49:54 46° ESE
Cosmos 1953 3.6 23:45:43 10° N 23:49:25 34° ENE 23:50:50 26° ESE
In-Cosmos 22 4.1 23:47:28 38° S 23:49:41 77° E 23:55:11 10° NNE
Cosmos 1842 4.3 23:51:27 30° WSW 23:52:33 37° WNW 23:56:10 10° N
